Погода в Суслонгере

Россия / Республика Марий Эл     56°18′40″N   48°14′58″E
темп.,
°C
ветер,
м/с
пор.,
м/с
влажн.,
%
обл.,
%
осадки,
мм/ч
давл.,
гПа
погр.,
м
17 мая, пн
пн1700:00+16ююз228576 0.0 101518
03:00+15юз129063 0.0 101612
06:00+18в008151 0.0 1016112
09:00+24зсз1162100 0.0 1017603
12:00+27зюз1249100 0.0 10161196
15:00+28юз244566 0.0 10161809
18:00+26зсз01604 0.0 101637
21:00+18св34855 1.0 101769
18 мая, вт
вт1800:00+16в23885 1.0 101854
03:00+15в36889 1.0 1018105
06:00+17в38825 0.0 1019240
09:00+24в45535 0.0 1019633
12:00+27в444515 0.0 10191158
15:00+27вюв44445 0.0 10181446
18:00+24в36585 0.0 1018252
21:00+18в310685 0.0 1019169
19 мая, ср
ср1900:00+16в311685 0.0 1019227
03:00+15в3117130 0.0 1019220
06:00+17вюв4116911 0.0 1020375
09:00+22вюв68535 0.0 1020886
12:00+24вюв57405 0.0 10191300
15:00+25вюв57395 0.0 10191491
18:00+22вюв49540 0.0 1018515
21:00+18в513641 0.0 1019353
20 мая, чт
чт2000:00+16вюв413670 0.0 1018321
03:00+14вюв312745 0.0 1019252
06:00+17вюв310685 0.0 1019312
09:00+22юв69435 0.0 10181005
12:00+24юв79377 0.0 10181555
15:00+24ююв6939100 0.0 10171739
18:00+21юв495057 0.0 1017587
21:00+15вюв312652 0.0 1017233
21 мая, пт
пт2100:00+14юв37692 0.0 1017122
03:00+13юв357069 0.0 101788
06:00+16юв31066100 0.0 1017303
09:00+21ююв584767 0.0 1017752
12:00+24ююв68374 0.0 10162598
15:00+24ю68375 0.0 10152881
18:00+21ю485377 0.0 1015603
21:00+16ю377762 0.5 1015183